{"data":{"norad_id":49077,"intl_designator":"2021-075C","name":"ONEWEB-0287","alt_names":[],"object_type":"PAYLOAD","status":"ACTIVE","operator":null,"country":"UK","launch_date":"2021-08-21","launch_site_code":"TYMSC","launch_vehicle":null,"mission":null,"orbit_class":"UNKNOWN","rcs_meters":null,"size_class":null,"mass_kg":null,"dimensions":null,"purposes":["comms"],"wikipedia_slug":null,"has_3d_model":false,"image_url":null,"decayed_at":null,"tle_current":{"epoch":"2026-05-25T01:58:08.702688Z","epoch_age_seconds":58110,"freshness":"FRESH","line1":"1 49077U 21075C   26145.08204517  .00000065  00000+0  13488-3 0  9994","line2":"2 49077  87.9153  10.4610 0002121  93.1233 267.0141 13.17651496230583","mean_motion":13.17651496,"eccentricity":0.0002121,"inclination_deg":87.9153,"raan_deg":10.461,"arg_perigee_deg":93.1233,"mean_anomaly_deg":267.0141,"bstar":0.00013488,"rev_number":23058,"period_min":109.28534626731,"perigee_km":1192.0977103157,"apogee_km":1195.3096851397,"semimajor_km":7571.8406977277,"source":"CELESTRAK","updated_at":"2026-05-25T13:38:22.480889Z"}}}